Regional Weather Roundup
Issued by NWS

Home | Current Version | Previous Version | Graphics & Text | Print | Product List | Glossary On
Versions: 1 2 3 4 5 6 7 8 9 10 11 12 13 14 15 16 17 18 19 20 21 22 23 24 25 26 27 28 29 30 31 32 33 34 35 36 37 38 39 40 41 42 43 44 45 46 47 48 49 50
000
ASUS43 KTOP 180059
RWRKS

WEATHER ROUNDUP FOR KANSAS
NATIONAL WEATHER SERVICE GOODLAND KS
700 PM CST WED DEC 17 2014

NOTE:  "FAIR" INDICATES FEW OR NO CLOUDS BELOW 12,000 FEET WITH NO
SIGNIFICANT WEATHER AND/OR OBSTRUCTIONS TO VISIBILITY.

KSZ001>006-013>018-027>032-041>047-180200-
NORTHWEST KANSAS

CITY           SKY/WX    TMP DP  RH WIND       PRES   REMARKS
GOODLAND       FOG       24  23  96 E9        30.03R VSB 1/2
HAYS           CLOUDY    28  19  69 E14       30.13R WCI  17
HILL CITY      CLOUDY    27  22  81 E14       30.13R WCI  16
RUSSELL        CLOUDY    27  26  96 E9        30.14R FOG
$$

KSZ061>065-074>080-084>089-180200-
SOUTHWEST KANSAS

CITY           SKY/WX    TMP DP  RH WIND       PRES   REMARKS
DODGE CITY     LGT SNOW  30  28  92 SE10      30.05F FOG     WCI  21
ELKHART          N/A     33  24  69 N8          N/A
GARDEN CITY    CLOUDY    32  30  92 SE13      30.02R WCI  22
GREAT BEND     CLOUDY    28  25  86 E12       30.14S WCI  18
LIBERAL        CLOUDY    37  30  75 SE12      30.02R WCI  30
$$

KSZ066>073-081>083-090>101-180200-
SOUTHEAST KANSAS

CITY           SKY/WX    TMP DP  RH WIND       PRES   REMARKS
CHANUTE        MIX PCPN  31  29  92 E7        30.23R
COFFEYVILLE    FRZ RAIN  32  31  96 NE7       30.22R FOG
HUTCHINSON     LGT SNOW  31  27  85 E6        30.17S FOG
MEDICINE LODGE   N/A     31  30  96 E7        30.12S
NEWTON         CLOUDY    28  23  80 E7        30.19F
PARSONS        FRZ RAIN  32  31  96 VRB5      30.23R FOG
WICHITA INTL   LGT SNOW  31  28  89 NE7       30.18S FOG
WICHITA JABRA  LGT SNOW  29  28  96 E7        30.18S FOG
WICHITA MCCONL LGT SNOW  30  28  93 NE8       30.18S FOG
WINFIELD       LGT SNOW  32  31  96 E6        30.19S FOG
$$

KSZ007>012-019>026-033>040-048>060-102>105-180200-
NORTHEAST KANSAS

CITY           SKY/WX    TMP DP  RH WIND       PRES   REMARKS
CONCORDIA      CLOUDY    27  19  72 E7        30.20R
EMPORIA        LGT SNOW  29  26  89 E8        30.21F FOG
LAWRENCE       CLOUDY    30  21  69 CALM      30.27R
MANHATTAN      CLOUDY    28  21  75 E6        30.23S
OLATHE IND     CLOUDY    30  22  72 SE8       30.25R
OLATHE EXE     CLOUDY    30  20  66 SE7       30.25R
SALINA         CLOUDY    30  24  78 E9        30.21R
TOPEKA BILLARD CLOUDY    31  21  66 E6        30.27R
TOPEKA FORBES  CLOUDY    30  23  75 E6        30.25R
$$


USA.gov is the U.S. government's official web portal to all federal, state and local government web resources and services.